Temp
70 70 69 68 67 68 67 66 66 67 67 65 66 67 67 68 69 68 68 68 68 67 67 66 68 67 69 67 66 66 66 65 66 65 64 64 64 63 65 64 62 63
70 70 71 69 68 70 67 68 67 67 66 66 67 66 67 68 68 68 67 67 67 67 66 66 66 67 67 67 66 65 65 64 65 67 65 64 64 63 64 64 63 62
69 69 69 68 69 68 67 67 67 67 67 67 67 67 67 68 68 66 66 66 67 67 66 66 65 66 66 65 65 65 66 64 65 65 65 65 65 64 64 64 63 63
69 70 70 69 69 68 67 67 66 67 67 67 66 68 68 69 67 66 65 69 66 66 65 65 65 65 65 66 65 65 65 65 66 65 64 65 65 65 64 64 65 64
70 70 70 69 69 69 67 68 67 66 67 68 68 66 68 67 66 65 66 66 66 65 65 65 65 65 65 65 64 65 65 65 65 64 64 64 65 65 66 65 64 64
70 70 70 69 69 68 67 68 68 67 67 67 67 68 67 67 66 66 66 66 66 66 66 65 65 65 65 64 63 64 65 65 65 64 64 64 65 65 66 65 64 64
70 69 69 69 69 68 68 68 68 69 67 68 67 67 67 66 66 66 66 66 66 67 66 66 65 65 65 64 63 64 64 64 64 64 64 64 64 64 64 64 64 64
71 71 70 69 69 68 69 68 68 68 68 67 67 67 66 67 66 67 67 66 66 66 66 66 65 65 65 64 64 64 64 65 65 64 64 64 63 63 64 65 64 64
72 70 70 69 69 68 69 69 69 68 68 68 67 67 66 67 67 66 66 65 65 66 65 65 65 65 65 64 64 65 65 65 65 65 64 64 63 63 64 63 62 63
70 69 70 70 70 69 70 70 70 69 68 68 68 67 66 67 66 66 66 65 65 65 65 65 65 65 65 64 65 65 65 65 65 64 64 64 64 64 64 63 63 63
68 68 69 69 70 70 71 71 71 71 69 69 68 67 67 66 66 66 65 65 66 66 66 65 66 66 65 65 65 65 65 65 65 64 64 64 64 64 65 64 63 63
68 70 70 71 71 71 71 72 72 71 70 70 69 69 67 67 66 66 67 66 66 66 66 66 66 65 65 65 65 65 64 64 65 64 64 64 64 64 63 63 63 63
69 70 69 71 71 71 71 72 72 72 72 70 70 70 69 68 67 66 67 67 67 66 66 65 65 65 64 64 64 64 64 64 64 64 64 64 64 64 64 64 63 63
68 68 70 69 70 70 70 71 71 71 70 70 70 69 69 69 68 67 68 67 67 66 66 65 65 64 63 63 64 64 64 64 64 64 64 63 63 63 64 64 64 64
68 69 69 69 70 70 70 70 69 70 70 70 70 70 70 70 69 68 67 66 65 65 65 65 65 65 65 65 65 64 63 64 64 64 64 63 63 63 63 63 63 64
68 69 69 68 68 68 69 69 69 69 70 69 69 70 69 69 68 68 69 68 67 66 65 65 65 66 68 68 68 67 64 64 64 63 63 63 63 63 63 63 63 63
68 68 68 68 69 69 69 69 69 70 70 69 69 69 69 69 69 68 68 68 68 68 66 66 66 67 68 65 66 68 68 65 64 64 63 63 63 63 63 64 63 63
67 68 68 68 68 68 69 68 69 69 69 69 69 69 68 69 68 68 68 67 67 67 67 67 67 68 65 64 65 65 67 67 65 64 64 63 63 63 63 63 63 63
68 68 68 67 67 69 70 69 68 68 68 68 68 69 68 67 67 67 67 67 67 67 67 67 67 67 64 64 64 64 64 65 65 64 63 63 62 63 62 62 62 62
67 68 67 67 68 68 68 66 66 67 68 70 70 69 68 67 67 67 67 66 67 66 67 67 66 66 63 62 61 61 62 63 62 61 62 62 62 62 62 62 62 61
67 67 67 67 68 67 66 65 66 67 69 69 69 69 68 67 67 67 67 67 67 67 66 67 68 65 62 61 60 59 60 62 60 62 61 61 61 61 61 61 61 61
66 67 67 68 67 66 66 66 67 68 68 69 69 68 68 68 67 67 67 67 67 66 66 66 67 63 62 61 59 57 59 61 58 58 59 60 60 60 60 60 59 59
67 67 66 66 66 66 66 67 67 68 69 69 68 67 67 66 67 67 67 67 67 66 64 64 64 61 58 57 57 57 60 59 58 58 58 59 59 59 58 58 59 60
68 68 67 66 67 67 67 67 68 69 69 69 68 68 67 67 67 66 66 66 66 65 64 63 64 61 56 55 55 56 59 59 58 58 57 58 58 58 57 58 60 65
68 67 67 67 67 67 68 68 68 68 69 68 68 67 67 66 66 65 64 63 64 65 68 65 61 60 56 55 55 55 58 58 56 56 56 57 57 57 58 58 59 61
68 68 67 68 68 68 68 68 68 68 66 66 66 67 66 64 64 64 63 61 62 63 65 62 60 60 58 53 54 53 55 57 56 55 57 58 57 57 58 58 57 57
MSLP
1013.89 1014.17 1014.41 1014.65 1014.85 1014.97 1015.21 1015.53 1015.69 1015.73 1015.89 1015.93 1016.05 1016.17 1016.21 1016.21 1016.29 1016.45 1016.49 1016.57 1016.61 1016.65 1016.69 1016.73 1016.77 1016.85 1016.85 1016.93 1016.97 1017.05 1017.13 1017.21 1017.21 1017.21 1017.29 1017.41 1017.49 1017.57 1017.65 1017.65 1017.65 1017.69
1013.73 1013.89 1014.05 1014.33 1014.61 1014.73 1014.89 1015.01 1015.29 1015.49 1015.65 1015.69 1015.73 1015.81 1015.89 1015.97 1016.13 1016.21 1016.37 1016.41 1016.45 1016.49 1016.49 1016.57 1016.61 1016.65 1016.73 1016.85 1016.93 1017.09 1017.13 1017.17 1017.21 1017.01 1017.13 1017.17 1017.21 1017.33 1017.45 1017.45 1017.49 1017.53
1013.53 1013.77 1013.89 1014.13 1014.33 1014.49 1014.61 1014.85 1015.05 1015.29 1015.45 1015.53 1015.57 1015.65 1015.77 1015.81 1015.97 1016.09 1016.13 1016.21 1016.37 1016.45 1016.49 1016.49 1016.53 1016.57 1016.65 1016.81 1016.93 1017.09 1017.17 1017.17 1017.21 1017.01 1017.01 1017.01 1016.93 1017.13 1017.13 1017.21 1017.33 1017.37
1013.29 1013.37 1013.57 1013.81 1013.97 1014.21 1014.49 1014.81 1015.13 1015.25 1015.37 1015.57 1015.65 1015.61 1015.65 1015.73 1015.85 1015.97 1016.09 1016.13 1016.25 1016.37 1016.41 1016.49 1016.49 1016.49 1016.57 1016.65 1016.81 1016.97 1017.01 1017.09 1017.01 1016.97 1017.01 1016.89 1016.89 1016.93 1016.97 1017.05 1017.17 1017.29
1013.01 1013.21 1013.37 1013.61 1013.77 1014.01 1014.37 1014.73 1015.05 1015.25 1015.37 1015.41 1015.49 1015.61 1015.69 1015.77 1015.89 1015.97 1016.05 1016.09 1016.17 1016.29 1016.37 1016.41 1016.37 1016.41 1016.41 1016.49 1016.61 1016.73 1016.85 1016.97 1016.89 1016.97 1017.01 1016.93 1016.77 1016.81 1016.77 1016.89 1017.05 1017.21
1012.97 1012.97 1013.17 1013.49 1013.73 1014.05 1014.41 1014.61 1014.77 1015.05 1015.25 1015.45 1015.45 1015.53 1015.65 1015.69 1015.77 1015.85 1015.93 1016.01 1016.09 1016.17 1016.25 1016.29 1016.33 1016.33 1016.37 1016.41 1016.53 1016.57 1016.61 1016.77 1016.69 1016.85 1016.93 1016.89 1016.69 1016.61 1016.61 1016.69 1016.89 1017.05
1012.73 1013.01 1013.29 1013.57 1013.89 1014.09 1014.37 1014.53 1014.65 1014.81 1014.97 1015.01 1015.21 1015.45 1015.49 1015.61 1015.65 1015.69 1015.73 1015.81 1015.89 1015.97 1016.05 1016.13 1016.25 1016.25 1016.25 1016.33 1016.45 1016.49 1016.49 1016.53 1016.53 1016.69 1016.81 1016.73 1016.65 1016.53 1016.45 1016.53 1016.65 1016.81
1012.09 1012.49 1013.09 1013.69 1014.09 1014.33 1014.41 1014.49 1014.57 1014.65 1014.61 1014.81 1015.01 1015.09 1015.25 1015.37 1015.45 1015.45 1015.49 1015.61 1015.73 1015.73 1015.81 1015.93 1016.01 1016.09 1016.05 1016.21 1016.33 1016.41 1016.41 1016.41 1016.49 1016.53 1016.65 1016.57 1016.53 1016.53 1016.33 1016.37 1016.45 1016.65
1011.89 1012.57 1013.33 1013.81 1014.17 1014.37 1014.41 1014.37 1014.41 1014.45 1014.49 1014.65 1014.77 1014.85 1014.97 1015.09 1015.13 1015.21 1015.29 1015.37 1015.45 1015.49 1015.61 1015.73 1015.85 1015.93 1015.93 1016.05 1016.17 1016.25 1016.25 1016.25 1016.25 1016.29 1016.33 1016.37 1016.37 1016.29 1016.21 1016.17 1016.37 1016.45
1013.05 1013.97 1014.01 1014.05 1014.17 1014.21 1014.29 1014.29 1014.33 1014.49 1014.49 1014.53 1014.53 1014.65 1014.77 1014.81 1014.85 1014.93 1015.05 1015.17 1015.25 1015.29 1015.37 1015.49 1015.61 1015.73 1015.77 1015.85 1015.89 1015.97 1016.01 1016.01 1015.97 1016.01 1016.01 1016.05 1016.05 1015.97 1015.93 1016.01 1016.09 1016.25
1013.21 1014.09 1014.17 1014.01 1013.97 1014.01 1014.01 1014.05 1014.21 1014.21 1014.25 1014.25 1014.33 1014.53 1014.57 1014.61 1014.69 1014.69 1014.85 1014.97 1015.05 1015.05 1015.09 1015.17 1015.25 1015.37 1015.53 1015.61 1015.61 1015.61 1015.61 1015.61 1015.65 1015.69 1015.73 1015.73 1015.73 1015.65 1015.61 1015.65 1015.81 1015.93
1012.81 1012.57 1012.77 1013.17 1013.33 1013.41 1013.53 1013.77 1013.85 1013.97 1014.21 1014.25 1014.33 1014.37 1014.41 1014.45 1014.45 1014.49 1014.57 1014.65 1014.65 1014.69 1014.73 1014.81 1014.89 1015.05 1015.17 1015.21 1015.21 1015.25 1015.29 1015.33 1015.33 1015.37 1015.41 1015.41 1015.37 1015.33 1015.29 1015.33 1015.49 1015.57
1012.81 1012.85 1013.33 1014.01 1013.85 1013.61 1013.57 1013.69 1013.81 1013.97 1014.13 1014.29 1014.41 1014.33 1014.25 1014.25 1014.25 1014.29 1014.25 1014.29 1014.29 1014.37 1014.41 1014.41 1014.37 1014.49 1014.65 1014.73 1014.85 1014.97 1015.01 1015.05 1015.05 1015.09 1015.09 1015.09 1015.01 1014.93 1014.93 1015.01 1015.17 1015.29
1012.61 1013.09 1013.69 1014.17 1014.41 1014.33 1014.05 1013.81 1013.73 1013.69 1013.69 1014.05 1014.17 1014.13 1014.01 1013.85 1013.81 1013.89 1013.85 1013.93 1013.93 1013.89 1013.85 1013.93 1014.09 1014.29 1014.49 1014.61 1014.69 1014.73 1014.73 1014.69 1014.69 1014.73 1014.73 1014.77 1014.73 1014.69 1014.73 1014.81 1014.89 1015.01
1011.81 1012.53 1013.33 1013.93 1014.05 1014.05 1013.89 1013.81 1013.69 1013.41 1013.37 1013.49 1013.65 1013.73 1013.57 1013.45 1013.41 1013.57 1013.73 1013.77 1013.73 1013.73 1013.77 1013.89 1014.05 1014.21 1014.33 1014.37 1014.45 1014.45 1014.45 1014.41 1014.37 1014.41 1014.45 1014.49 1014.49 1014.49 1014.53 1014.61 1014.69 1014.73
1011.93 1012.73 1013.13 1013.21 1013.37 1013.57 1013.45 1013.37 1013.69 1013.81 1013.41 1013.29 1013.37 1013.33 1013.25 1013.21 1013.29 1013.41 1013.45 1013.45 1013.53 1013.61 1013.69 1013.85 1013.97 1014.01 1013.97 1013.97 1014.01 1014.01 1014.05 1014.05 1014.13 1014.17 1014.17 1014.21 1014.29 1014.33 1014.37 1014.37 1014.41 1014.41
1011.81 1012.45 1012.89 1013.21 1012.93 1013.05 1012.89 1012.97 1013.45 1013.37 1013.25 1013.13 1013.09 1013.09 1013.09 1013.09 1013.17 1013.29 1013.29 1013.21 1013.29 1013.37 1013.53 1013.65 1013.73 1013.69 1013.57 1013.61 1013.61 1013.57 1013.65 1013.73 1013.85 1013.85 1013.85 1013.93 1014.01 1014.13 1014.17 1014.13 1014.09 1014.05
1011.41 1011.85 1011.81 1011.77 1011.93 1012.13 1012.01 1011.89 1012.37 1012.77 1012.81 1012.81 1012.85 1012.89 1012.89 1012.93 1013.09 1013.09 1013.05 1013.05 1013.13 1013.17 1013.25 1013.29 1013.29 1013.17 1013.21 1013.25 1013.25 1013.25 1013.25 1013.37 1013.45 1013.57 1013.57 1013.61 1013.69 1013.85 1013.89 1013.93 1013.89 1013.85
1010.41 1011.05 1011.17 1011.21 1011.17 1011.09 1010.89 1011.13 1011.73 1012.13 1012.41 1012.61 1012.69 1012.57 1012.69 1012.93 1012.89 1012.97 1012.93 1012.81 1012.81 1012.93 1013.05 1013.09 1013.09 1012.93 1013.01 1013.05 1013.01 1013.01 1013.01 1013.17 1013.25 1013.29 1013.37 1013.41 1013.49 1013.61 1013.69 1013.69 1013.69 1013.69
1009.53 1010.05 1010.49 1010.57 1010.45 1010.41 1010.53 1011.09 1011.69 1012.09 1012.25 1012.37 1012.41 1012.53 1012.61 1012.61 1012.69 1012.69 1012.57 1012.57 1012.61 1012.77 1012.89 1012.89 1012.93 1012.81 1012.81 1012.85 1012.89 1012.93 1013.01 1013.17 1013.17 1013.17 1013.21 1013.25 1013.33 1013.37 1013.45 1013.45 1013.45 1013.53
1009.37 1009.53 1009.53 1009.73 1010.09 1010.65 1011.17 1011.61 1011.85 1011.89 1011.97 1012.05 1012.21 1012.25 1012.29 1012.29 1012.33 1012.37 1012.29 1012.29 1012.41 1012.57 1012.69 1012.69 1012.53 1012.41 1012.53 1012.57 1012.61 1012.69 1012.81 1012.93 1012.97 1013.01 1013.09 1013.13 1013.17 1013.21 1013.21 1013.21 1013.21 1013.29
1008.93 1009.29 1009.45 1009.81 1010.49 1011.53 1012.01 1011.93 1011.73 1011.61 1011.61 1011.65 1011.85 1011.89 1011.77 1011.77 1011.81 1011.81 1011.93 1012.09 1012.13 1012.29 1012.45 1012.53 1012.29 1012.29 1012.33 1012.41 1012.45 1012.53 1012.65 1012.73 1012.81 1012.89 1013.01 1013.09 1013.09 1013.05 1013.05 1013.01 1013.09 1013.17
1008.69 1009.21 1010.09 1010.85 1011.13 1011.21 1011.33 1011.45 1011.37 1011.25 1011.21 1011.25 1011.65 1011.61 1011.61 1011.57 1011.53 1011.53 1011.57 1011.69 1011.77 1011.93 1012.21 1012.29 1012.21 1012.21 1012.37 1012.45 1012.49 1012.57 1012.61 1012.65 1012.73 1012.85 1012.97 1013.05 1012.97 1012.93 1012.97 1012.93 1012.93 1012.97
1008.53 1009.13 1009.89 1010.69 1010.81 1010.85 1010.97 1010.89 1010.81 1010.77 1010.81 1010.89 1011.21 1011.21 1011.29 1011.17 1011.17 1011.37 1011.41 1011.45 1011.57 1011.81 1011.97 1012.13 1012.09 1012.17 1012.41 1012.49 1012.49 1012.49 1012.45 1012.53 1012.73 1012.85 1012.93 1013.01 1012.93 1012.89 1012.85 1012.81 1012.73 1012.69
1008.49 1009.05 1009.57 1009.89 1010.01 1010.25 1010.29 1010.53 1010.53 1010.41 1010.29 1010.53 1010.73 1010.85 1010.89 1010.89 1011.09 1011.25 1011.33 1011.53 1011.77 1011.89 1011.93 1012.01 1012.13 1012.29 1012.49 1012.49 1012.45 1012.41 1012.49 1012.65 1012.85 1012.97 1013.01 1012.89 1012.89 1012.85 1012.73 1012.69 1012.61 1012.53
1008.45 1008.73 1009.13 1009.25 1009.45 1009.69 1010.01 1010.25 1010.33 1010.45 1010.57 1010.69 1010.77 1010.77 1010.77 1010.73 1010.81 1010.97 1011.21 1011.45 1011.45 1011.49 1011.81 1012.05 1012.21 1012.37 1012.45 1012.45 1012.41 1012.49 1012.69 1012.89 1013.01 1013.05 1012.97 1012.81 1012.89 1012.89 1012.69 1012.49 1012.57 1012.57
Wind_Speed
8 7 8 8 7 7 8 7 6 7 7 6 7 6 7 6 5 5 5 5 4 5 5 5 4 4 5 4 4 3 3 4 4 3 4 3 4 4 4 4 3 4
9 9 7 7 7 6 7 7 7 7 7 6 6 6 5 5 6 5 5 5 4 4 4 4 4 4 4 3 3 3 3 3 4 2 3 3 4 3 4 4 4 3
8 8 8 9 8 7 8 6 6 6 6 6 5 5 5 4 5 4 4 4 4 4 4 4 4 3 3 3 3 3 3 4 5 4 3 4 4 4 4 4 3 4
9 10 9 8 8 8 6 6 5 5 4 5 5 5 4 4 4 4 4 4 4 4 4 3 4 3 3 4 3 4 4 5 5 4 4 3 4 4 4 3 4 3
11 9 8 8 7 7 7 7 6 5 5 6 4 3 3 3 4 4 4 4 4 4 4 4 3 4 3 4 3 4 4 5 5 4 4 5 5 3 4 3 4 4
6 7 8 8 7 7 7 7 7 6 6 4 6 4 4 4 4 5 5 5 4 5 4 4 4 4 3 3 3 4 4 5 5 4 4 5 5 4 4 3 4 5
10 8 8 6 6 7 7 7 6 6 7 7 4 5 5 5 5 6 6 6 5 5 5 4 4 5 4 3 3 4 4 4 4 4 4 5 4 5 4 4 4 5
13 10 8 6 6 6 7 7 7 7 7 5 6 6 5 6 6 6 5 6 5 5 5 5 4 5 4 3 4 4 5 4 5 5 5 6 4 4 4 4 4 5
11 8 6 6 7 6 7 7 7 7 5 7 7 6 5 6 7 6 6 6 5 5 5 4 5 5 5 4 4 5 6 6 6 5 6 6 5 6 5 4 3 4
7 3 4 5 7 7 7 7 6 6 5 7 7 6 7 6 6 6 5 5 5 5 5 5 5 5 5 5 6 6 7 7 6 6 6 6 6 6 5 4 5 5
13 6 3 7 8 7 8 7 7 7 6 8 7 6 6 6 5 5 5 5 6 6 6 6 6 6 5 6 6 6 7 7 6 5 6 6 6 6 5 5 5 6
12 13 13 11 10 10 10 8 8 7 6 5 5 7 6 6 6 5 6 7 6 6 6 7 6 6 6 7 6 6 6 6 5 5 6 6 6 6 6 5 5 6
10 9 6 5 6 6 6 6 6 6 5 6 6 7 7 7 6 6 6 7 7 6 7 6 5 4 4 5 5 5 5 5 6 6 6 6 5 6 5 5 5 5
9 6 5 3 2 3 4 6 6 6 5 4 7 8 8 7 6 7 7 6 6 6 5 4 4 4 4 4 5 6 6 5 6 5 6 5 5 5 4 5 5 5
12 8 7 5 6 6 7 6 6 8 8 10 9 8 7 7 6 6 6 6 4 4 4 3 4 5 5 5 6 7 6 6 6 6 6 5 5 4 4 5 5 6
10 7 6 8 7 10 9 6 4 7 9 9 9 9 8 6 6 6 7 7 6 5 4 4 4 5 8 13 11 7 6 6 5 6 6 5 5 5 5 5 6 6
10 9 8 10 10 9 9 5 9 13 9 10 10 9 8 7 7 7 6 6 6 6 5 5 6 6 12 12 13 13 8 6 6 6 5 5 5 5 6 7 6 6
13 15 16 14 13 14 13 13 14 12 11 10 10 9 8 7 7 8 7 6 6 5 5 6 6 8 12 12 12 13 11 7 6 6 5 4 4 5 6 6 6 6
18 17 14 13 13 14 14 12 11 10 10 10 11 10 7 8 8 8 8 7 6 6 6 7 6 9 11 12 12 12 11 8 5 5 4 4 4 5 6 6 6 5
18 17 15 15 15 16 13 9 8 10 9 9 9 7 8 9 8 9 8 7 6 6 6 6 6 9 11 11 9 8 7 5 4 3 4 4 5 6 6 6 6 5
16 16 17 15 14 8 3 3 7 9 11 10 9 10 10 10 9 9 8 7 5 5 6 7 7 9 8 8 8 8 7 5 3 3 3 5 5 5 6 5 5 4
16 16 14 11 6 2 4 8 9 11 11 10 9 8 7 7 7 6 6 6 6 5 5 6 6 4 3 4 5 5 3 1 2 2 3 4 5 6 5 4 3 3
13 13 10 5 4 8 11 11 11 11 11 8 9 9 8 8 8 7 6 6 6 4 4 5 5 3 4 3 3 2 2 1 1 2 3 4 6 5 3 3 3 3
13 12 10 7 9 11 11 10 10 9 10 8 9 10 9 8 7 6 5 5 4 4 3 3 4 3 4 1 2 2 2 2 2 2 4 4 5 4 3 3 5 9
9 10 11 12 13 12 12 11 11 11 9 7 8 7 7 4 3 5 3 1 1 1 2 3 3 1 2 2 2 1 1 1 1 2 3 5 5 5 4 4 4 5
9 12 12 13 13 11 8 9 6 5 4 4 5 5 4 4 4 5 4 4 3 3 1 2 1 1 3 4 2 1 1 1 1 2 5 6 4 3 5 5 4 5
Wind_Direction
177 177 176 175 177 177 173 176 185 173 180 174 169 182 168 180 177 184 193 194 194 188 191 183 187 191 201 203 200 199 202 212 227 220 202 195 213 213 230 234 213 212
183 179 175 170 172 176 175 175 175 174 177 178 179 173 188 169 191 182 190 192 196 198 196 195 197 197 202 207 210 207 236 232 246 230 220 215 228 206 230 235 231 222
175 176 173 172 176 177 176 177 168 176 170 186 180 174 183 186 184 199 196 186 188 205 208 211 211 216 210 219 220 226 235 238 246 252 225 233 233 217 229 229 232 227
181 180 176 176 172 173 172 161 173 171 171 169 188 195 182 189 184 197 206 196 187 207 221 213 216 221 215 222 213 222 229 234 237 235 234 249 239 224 238 226 233 247
180 181 175 176 176 166 159 164 173 176 178 189 194 196 188 198 196 204 205 207 197 213 220 221 221 224 218 220 204 221 228 234 243 227 231 244 249 223 237 221 237 245
185 180 175 176 172 159 163 171 177 176 186 185 200 192 201 197 199 202 205 206 209 210 215 223 224 232 219 223 205 220 227 230 246 219 224 237 250 239 234 225 232 243
181 179 181 176 164 164 167 179 178 183 185 194 177 198 196 198 203 210 207 209 206 206 209 218 227 242 230 215 212 229 233 231 247 233 231 245 240 253 240 232 233 239
181 178 170 157 162 169 176 185 186 188 193 175 186 207 189 202 205 212 212 208 206 211 215 223 229 239 247 213 219 227 239 229 236 235 237 247 239 245 251 238 232 237
177 159 145 155 166 178 189 192 197 199 190 185 199 206 202 200 207 208 209 204 206 214 216 225 229 235 239 225 231 230 234 237 233 232 233 240 239 242 244 240 241 239
107 65 129 158 179 188 195 201 200 202 193 196 203 203 203 211 205 208 205 203 209 218 221 227 231 231 233 223 228 229 232 235 236 232 232 233 234 239 240 232 237 249
101 106 186 195 195 193 202 199 203 204 198 199 200 208 214 207 215 208 212 208 212 217 223 227 230 227 224 228 229 226 227 232 236 234 233 232 232 231 229 226 234 237
140 176 192 194 193 194 197 195 204 207 206 212 207 215 217 212 212 214 212 218 217 219 217 222 222 216 215 221 224 224 224 229 234 234 235 233 231 228 227 223 228 238
170 187 172 221 220 202 190 203 205 206 213 217 221 224 216 213 214 215 221 214 221 211 209 210 218 222 223 228 230 227 223 223 228 230 234 232 231 231 233 230 232 238
185 169 187 243 273 248 228 214 208 207 209 235 240 230 226 223 223 223 227 211 212 203 213 212 221 226 227 230 231 228 224 225 225 230 235 236 239 239 235 238 238 239
178 159 175 204 227 227 217 216 216 216 215 222 227 228 227 224 222 215 208 208 210 205 213 211 204 216 216 223 231 236 225 228 228 228 230 236 242 243 239 238 243 241
146 140 168 209 197 213 210 207 242 251 237 228 227 227 225 217 209 206 204 200 205 215 214 209 215 219 227 227 224 223 219 222 225 227 224 225 230 240 248 240 239 239
148 167 202 220 212 204 203 174 231 242 235 232 228 224 219 212 202 206 208 207 205 209 216 217 221 221 226 230 232 232 225 221 220 228 221 218 221 224 243 250 247 238
160 184 202 202 190 198 191 197 216 228 230 228 226 222 218 207 207 210 210 209 209 210 221 230 233 236 235 239 238 235 230 225 224 227 227 224 224 230 239 246 255 263
174 193 203 205 201 202 202 197 212 226 229 229 227 221 207 205 212 211 216 215 211 214 229 237 242 247 245 247 248 248 245 232 229 224 229 241 242 243 246 247 249 255
179 192 199 203 202 205 202 197 213 227 233 233 232 219 209 211 210 215 218 216 213 216 232 242 244 250 249 256 266 267 256 229 226 225 235 245 249 248 247 246 245 248
183 197 201 199 203 206 198 230 231 233 232 230 225 217 209 206 205 213 219 216 215 216 226 242 245 248 254 250 249 248 241 214 211 220 239 249 250 249 244 243 245 242
187 199 205 200 172 102 246 236 233 231 231 226 224 223 216 208 213 212 212 214 219 217 224 247 260 267 250 244 229 228 211 172 171 207 240 255 259 254 249 246 245 236
189 182 181 163 149 204 224 232 233 231 229 221 222 221 210 207 210 204 206 212 222 218 217 249 267 251 211 190 210 190 155 187 197 235 254 261 260 261 260 256 250 245
188 176 150 148 206 218 229 233 231 232 230 214 215 217 214 214 208 206 211 214 218 223 205 229 268 248 194 252 280 263 213 229 240 231 262 261 272 282 289 278 266 264
165 147 161 190 207 217 227 232 229 226 227 209 219 216 223 216 195 200 197 88 31 8 259 224 241 242 154 201 215 130 106 130 163 194 255 268 274 292 294 272 280 286
154 161 176 199 212 223 229 235 246 253 242 210 216 206 209 183 168 154 138 116 145 118 142 203 178 137 172 173 120 80 66 152 152 189 248 262 277 270 296 299 294 299